STARLINK-1588

decayed
NORAD ID: 46118 Int'l Des: 2020-057 Owner: SPXS Country: US Constellation: starlink
LEOCIRCULAR
Gruppe

Über STARLINK-1588

Beschreibung wird geladen...

Höhenverlauf

Altitude vs Time

uPlot chart will show altitude changes over time

Zweizeiliger Elementsatz

1 46118U 20057B 25151.89223394 .35230939 12819-4 25470-3 0 9998
2 46118 53.0242 100.9029 0007738 328.0880 140.6063 16.52536650264813
Epoch: 31. Mai 2025 • Age: 2568 hours

Aktueller Status

Position data unavailable
Startdatum 18. Aug. 2020
Alter 5 years
Verglühungsdatum 31. Mai 2025
Typ internet

Technische Details

Klassifizierung Payload
Masse 260.00 kg
Trockenmasse 248.00 kg
Gesamtmasse 260.00 kg
Länge 0.20 m
Durchmesser 2.80 m
Spannweite 9.00 m
Form Box + pan
Hersteller SPXS
Bus-Typ Starlink
Phasenstatus Reentered
Besitzer/Staat SPXS/US

Große Konstellationen

Loading constellations...